This is the latest recevied weather packets stored in our database for station/object N8SDR. If no packets are shown the sender has not sent any weather packets the latest 10 day(s).
| Time | Temp. | Humidity | Pressure | Rain* | Wind** | Luminosity | Snow |
|---|---|---|---|---|---|---|---|
| 1778163792 | 11.11° C | 54% | 1012.3 hPa | 0 mm | - | 597 W/m² | - |
| 1778163489 | 11.11° C | 53% | 1012 hPa | 0 mm | - | 598 W/m² | - |
| 1778163186 | 10.56° C | 54% | 1012.3 hPa | 0 mm | - | 609 W/m² | - |
| 1778162882 | 10.56° C | 53% | 1012.3 hPa | 0 mm | - | 579 W/m² | - |
| 1778162579 | 11.11° C | 53% | 1012.1 hPa | 0 mm | - | 554 W/m² | - |
| 1778162277 | 10.56° C | 57% | 1012.1 hPa | 0 mm | - | 541 W/m² | - |
| 1778161973 | 10.56° C | 55% | 1012.2 hPa | 0 mm | - | 480 W/m² | - |
| 1778161670 | 10.56° C | 59% | 1012 hPa | 0 mm | - | 353 W/m² | - |
| 1778161367 | 10.56° C | 58% | 1012.2 hPa | 0 mm | - | 403 W/m² | - |
| 1778161062 | 10.56° C | 59% | 1012.1 hPa | 0 mm | - | 230 W/m² | - |
| 1778160759 | 10.56° C | 60% | 1012.2 hPa | 0 mm | - | 302 W/m² | - |
| 1778160457 | 10° C | 61% | 1012 hPa | 0 mm | - | 371 W/m² | - |
| 1778160153 | 10° C | 62% | 1012 hPa | 0 mm | - | 330 W/m² | - |
| 1778159850 | 10° C | 63% | 1012.3 hPa | 0 mm | - | 330 W/m² | - |
| 1778159547 | 10° C | 65% | 1012.3 hPa | 0 mm | - | 282 W/m² | - |
| 1778159244 | 10° C | 66% | 1012.3 hPa | 0 mm | - | 277 W/m² | - |
| 1778158942 | 10° C | 65% | 1012.2 hPa | 0 mm | - | 288 W/m² | - |
| 1778158640 | 9.44° C | 67% | 1012.3 hPa | 0 mm | - | 278 W/m² | - |
| 1778158338 | 9.44° C | 65% | 1012.2 hPa | 0 mm | - | 255 W/m² | - |
| 1778158034 | 9.44° C | 66% | 1012.1 hPa | 0 mm | - | 235 W/m² | - |
| 1778157731 | 9.44° C | 68% | 1012.1 hPa | 0 mm | - | 343 W/m² | - |
| 1778157429 | 8.89° C | 70% | 1012.3 hPa | 0 mm | - | 206 W/m² | - |
| 1778157127 | 8.89° C | 71% | 1012.2 hPa | 0 mm | - | 179 W/m² | - |
| 1778156821 | 8.89° C | 73% | 1012.1 hPa | 0 mm | - | 169 W/m² | - |
| 1778156518 | 8.33° C | 74% | 1012.3 hPa | 0 mm | - | 112 W/m² | - |
* Rain latest hour (hover to see other rain measurements)
** Current wind speed in m/s (hover to see current wind gust speed)